Regional Weather Roundup
Issued by NWS

Home | Current Version | Previous Version | Text Only | Print | Product List | Glossary On
Versions: 1 2 3 4 5 6 7 8 9 10 11 12 13 14 15 16 17 18 19 20 21 22 23 24 25 26 27 28 29 30 31 32 33 34 35 36 37 38 39 40 41 42 43 44 45 46 47 48 49 50
000
ASUS44 KMEG 280010
RWRTN
TENNESSEE HOURLY STATE WEATHER ROUNDUP
NATIONAL WEATHER SERVICE MEMPHIS TN
600 PM CST MON FEB 27 2017

TNZ002-004-019-021-049-052-054-088>092-280100-
WEST TENNESSEE

CITY           SKY/WX    TMP DP  RH WIND       PRES   REMARKS
MEMPHIS INTL   PTCLDY    62  50  64 S10       30.07R
NWS MEMPHIS      N/A     62 N/A N/A MISG        N/A
JACKSON        CLEAR     61  48  62 VRB5      30.10F
UNION CITY     CLEAR     59  43  55 CALM      30.08S
PARIS          CLEAR     57  45  62 S8        30.12R
HUNTINGDON     CLEAR     57  46  67 S7        30.11R
$$

TNZ008-025-027-028-033-062-065-066-280100-
NORTH MIDDLE TENNESSEE

CITY           SKY/WX    TMP DP  RH WIND       PRES   REMARKS
NASHVILLE      MOCLDY    56  43  61 S10       30.18R
PORTLAND       CLEAR     54  43  66 S9        30.16S
CLARKSVILLE    CLEAR     58  42  55 S8        30.12S
SMYRNA         CLEAR     55  46  71 S7        30.19R
COOKEVILLE     CLOUDY    54  43  66 S8        30.20R
GALLATIN       CLEAR     57  45  62 S7        30.20R
CROSSVILLE     CLOUDY    49  39  68 VRB7      30.24R
$$

TNZ061-075-076-078-094-096-097-280100-
SOUTH MIDDLE TENNESSEE

CITY           SKY/WX    TMP DP  RH WIND       PRES   REMARKS
FAYETTEVILLE   CLOUDY    52  48  87 S6        30.20S
TULLAHOMA      PTCLDY    52  45  76 S5        30.21R
WINCHESTER     CLEAR     52  45  76 SE5       30.21S
MCMINNVILLE    CLOUDY    54  45  71 S3        30.21R
COLUMBIA       CLEAR     54  54 100 S5        30.16S
SHELBYVILLE    CLEAR     54  48  82 S6        30.20S
$$

TNZ017-018-042-046-047-280100-
NORTHEAST TENNESSEE

CITY           SKY/WX    TMP DP  RH WIND       PRES   REMARKS
TRI CITIES     CLOUDY    55  28  35 SE5       30.24R
ELIZABETHTON   CLOUDY    54  30  40 E3        30.25S
$$

TNZ012-013-036-069-073-074-280100-
CENTRAL EAST TENNESSEE

CITY           SKY/WX    TMP DP  RH WIND       PRES   REMARKS
KNOXVILLE      CLOUDY    54  37  52 NW3       30.23R
OAK RIDGE      CLOUDY    52  38  58 VRB3      30.25R
DOWNTOWN KNOXV CLOUDY    54  41  62 CALM      30.25R
GATLINBURG     CLOUDY    50  36  57 CALM      30.24R
MORRISTOWN     CLOUDY    52  32  46 CALM      30.23R
JACKSBORO      CLOUDY    52  37  58 CALM      30.26R
$$

TNZ083-085-099-280100-
SOUTHEAST TENNESSEE

CITY           SKY/WX    TMP DP  RH WIND       PRES   REMARKS
CHATTANOOGA    MOCLDY    54  43  66 CALM      30.25R
$$

SKY/WX REPORTED AS FAIR MEANS FEW OR NO CLOUDS BELOW
12 THOUSAND FEET.




USA.gov is the U.S. government's official web portal to all federal, state and local government web resources and services.